{"data":{"norad_id":58510,"epoch":"2026-05-25T00:44:32.106624Z","epoch_age_seconds":69601,"freshness":"FRESH","line1":"1 58510U 23191C   26145.03092716  .00008456  00000+0  31640-3 0  9990","line2":"2 58510  43.0019  32.5670 0001718 268.0967  91.9688 15.27585334137179","mean_motion":15.27585334,"eccentricity":0.0001718,"inclination_deg":43.0019,"raan_deg":32.567,"arg_perigee_deg":268.0967,"mean_anomaly_deg":91.9688,"bstar":0.0003164,"rev_number":13717,"period_min":94.266419554405,"perigee_km":481.8543751439,"apogee_km":484.21187319856,"semimajor_km":6861.1701241712,"source":"CELESTRAK","updated_at":"2026-05-25T13:38:18.655569Z"}}